[[{"header":{"parameterUnit":"m.s-1","parameterCategory":1,"la1":30.2991,"la2":30.254,"lo1":-89.0895,"lo2":-89.0444,"dy":0.0017,"dx":0.0017,"nx":28,"ny":28,"refTime":"2023-11-10T03:00:00:Z","depth":0,"parameterNumber":2,"parameterNumberName":"U-component_of_WINDS"},"data":[0,0,0,0,0,0,0,0,0,0,0,0,0,0,0,0,0,0,0,0,0,0,0,0,0,0,0,0,0,0,0,0,0,0,0,0,0,0,0,0,0,0,0,0,0,0,0,0,0,0,0,0,0,0,0,0,0,0,-1.9724,-1.9722,0,-1.9598,-1.9596,-1.9595,-1.9496,-1.9495,-1.9494,-1.9493,-1.936,-1.9357,-1.9355,0,0,0,0,0,0,0,0,0,0,0,0,0,-1.9877,-1.9875,-1.9724,-1.9722,-1.9721,-1.9598,-1.9596,-1.9594,-1.9496,-1.9495,-1.9494,-1.9492,-1.9361,-1.9358,-1.9354,0,0,0,0,0,0,0,0,0,0,0,0,0,-1.9787,-1.9874,-1.9724,-1.9657,-1.965,-1.9598,-1.9596,-1.9594,-1.9496,-1.9495,-1.9493,-1.9492,-1.9362,-1.9358,-1.9354,-1.9358,0,0,-1.9342,-1.934,0,0,0,0,0,0,0,0,-1.9792,-1.9781,-1.9668,-1.9661,-1.9653,-1.9561,-1.9601,-1.9515,-1.9496,-1.9554,-1.9493,-1.9491,-1.9428,-1.9418,-1.9398,-1.9352,-1.9346,-1.9342,-1.9339,-1.9337,-1.9336,0,0,0,0,0,0,0,-1.9798,-1.9786,-1.9674,-1.9667,-1.9657,-1.9632,-1.9618,-1.9584,-1.95,-1.9549,-1.9542,-1.9528,-1.9423,-1.9402,-1.9394,-1.9344,-1.9342,-1.9338,-1.9336,-1.9334,-1.9298,-1.9299,0,0,0,0,0,0,-1.9815,-1.9792,-1.9678,-1.967,-1.9721,-1.9631,-1.9614,-1.9592,-1.9501,-1.9485,-1.953,-1.9524,-1.9409,-1.9398,-1.9389,-1.9389,-1.9337,-1.9334,-1.9331,-1.9296,-1.9298,-1.9299,0,0,0,0,0,0,-1.9819,-1.9806,-1.9683,-1.9729,-1.9711,-1.963,-1.9605,-1.959,-1.9569,-1.9486,-1.947,-1.9523,-1.9408,-1.9394,-1.9367,-1.9383,-1.9332,-1.9328,-1.9295,-1.9297,-1.9299,-1.9389,0,0,0,0,0,0,-1.9824,-1.9808,-1.9809,-1.973,-1.9709,-1.9664,-1.9606,-1.9589,-1.9562,-1.9554,-1.9476,-1.9461,-1.9405,-1.9374,-1.9363,-1.9377,-1.9325,-1.9293,-1.9295,-1.9298,-1.9384,-1.9394,-1.9402,0,0,0,0,0,-1.983,-1.9838,-1.981,-1.9797,-1.9709,-1.9666,-1.9654,-1.959,-1.9564,-1.9564,-1.9512,-1.9464,-1.9383,-1.9372,-1.9359,-1.9372,-1.9291,-1.9295,-1.9298,-1.938,-1.9392,-1.9402,0,0,0,0,0,0,-1.992,-1.9827,-1.9794,-1.9777,-1.973,-1.9649,-1.9647,-1.9605,-1.9563,-1.9557,-1.9479,-1.9462,-1.9444,-1.9404,-1.9394,-1.9372,-1.9331,-1.9332,-1.9398,-1.9409,-1.9418,-1.9428,-1.9322,0,0,0,0,0,-1.9938,-1.9912,-1.9831,-1.9824,-1.9802,-1.973,-1.9708,-1.9664,-1.9611,-1.959,-1.9535,-1.9486,-1.9449,-1.9426,-1.9388,-1.9378,-1.936,-1.938,-1.939,-1.9397,-1.9399,-1.9393,-1.9401,-1.931,-1.931,-1.931,0,0,-1.9975,-1.9921,-1.9908,-1.9841,-1.9799,-1.9773,-1.9713,-1.9687,-1.9667,-1.9586,-1.9558,-1.9516,-1.9455,-1.9438,-1.9427,-1.9404,-1.9421,-1.9401,-1.9408,-1.9405,-1.9397,-1.9406,-1.9413,-1.9312,-1.9312,-1.9311,0,0,-2.0029,-1.9985,-1.9975,-1.9936,-1.9874,-1.9826,-1.9824,-1.975,-1.9719,-1.969,-1.963,-1.9604,-1.9542,-1.9502,-1.9474,-1.9516,-1.947,-1.9505,-1.9552,-1.9547,-1.9554,-1.956,-1.9576,-1.9583,-1.9507,-1.9507,-1.9507,0,-2.0082,-2.0041,-1.9975,-1.9954,-1.9927,-1.9854,-1.9844,-1.9808,-1.9737,-1.972,-1.9696,-1.9619,-1.9572,-1.9545,-1.9556,-1.9535,-1.953,-1.9514,-1.9559,-1.9564,-1.9569,-1.9583,-1.9589,-1.9512,-1.9511,-1.9511,-1.951,0,-2.011,-2.0083,-2.0083,-2.0019,-1.9991,-1.9975,-1.9907,-1.9887,-1.9845,-1.98,-1.9772,-1.9714,-1.9664,-1.9654,-1.9612,-1.9622,-1.961,-1.9573,-1.9531,-1.9583,-1.9596,-1.9601,-1.9519,-1.9517,-1.9516,-1.9514,0,0,-2.0216,-2.0118,-2.0119,-2.009,-2.0018,-1.9995,-1.9977,-1.993,-1.9915,-1.9868,-1.9851,-1.9802,-1.9769,-1.9737,-1.969,-1.9685,-1.9724,-1.9649,-1.9646,-1.9666,-1.9732,-1.9761,-1.9769,-1.9694,-1.9694,-1.9695,-1.9738,0,-2.026,-2.0224,-2.0166,-2.0149,-2.0124,-2.0056,-2.004,-1.9994,-1.9951,-1.9923,-1.9875,-1.9842,-1.98,-1.978,-1.9772,-1.9721,-1.9736,-1.9717,-1.9677,-1.9677,-1.9696,-1.9775,-1.9804,-1.9848,-1.9742,-1.9743,-1.9743,0,-2.0305,-2.0266,-2.0248,-2.018,-2.0167,-2.0154,-2.0107,-2.0081,-2.0028,-1.9997,-1.9963,-1.9913,-1.989,-1.9852,-1.9819,-1.9808,-1.9788,-1.976,-1.976,-1.9755,-1.9714,-1.9772,-1.986,-1.9867,-1.975,-1.975,-1.9749,0,-2.0387,-2.0329,-2.0311,-2.0288,-2.0208,-2.0201,-2.0167,-2.0112,-2.0088,-2.0047,-2.0031,-1.9987,-1.9963,-1.9929,-1.9869,-1.9846,-1.9844,-1.98,-1.9818,-1.982,-1.982,-1.9821,-1.9907,-1.9806,-1.9806,-1.9806,-1.9806,0,-2.0442,-2.0434,-2.0347,-2.0336,-2.0325,-2.0257,-2.0248,-2.0208,-2.016,-2.014,-2.0077,-2.006,-1.998,-1.9953,-1.9905,-1.9887,-1.9876,-1.9851,-1.9838,-1.9857,-1.986,-1.9843,-1.9839,-1.9808,-1.9808,-1.9807,-1.9807,0,-2.0531,-2.0472,-2.0448,-2.0376,-2.0357,-2.0353,-2.029,-2.0277,-2.0231,-2.0207,-2.0197,-2.0125,-2.009,-2.0027,-1.9973,-1.9941,-1.9933,-1.991,-1.9952,-1.9944,-1.9966,-1.9966,-2.0045,-2.0052,-1.9946,-1.9948,-1.9948,0,-2.0571,-2.0563,-2.0491,-2.0474,-2.0443,-2.0416,-2.0392,-2.0326,-2.0303,-2.0244,-2.0238,-2.0199,-2.0164,-2.0111,-2.0054,-2.0013,-1.999,-2.002,-1.9983,-2.0003,-1.9992,-1.9994,-1.9993,-2.0029,-2.0031,-2.0032,-2.0033,0,-2.0648,-2.062,-2.0589,-2.0548,-2.0522,-2.0486,-2.0447,-2.0436,-2.0361,-2.0339,-2.0304,-2.0277,-2.0224,-2.0186,-2.0137,-2.0101,-2.0055,-2.0045,-2.0047,-2.0067,-2.0092,-2.008,-1.9976,-2.0044,-2.0042,-2.0042,-2.0041,-2.0041,-2.0714,-2.0705,-2.0654,-2.0622,-2.0586,-2.0551,-2.0536,-2.049,-2.046,-2.0413,-2.0375,-2.0344,-2.0292,-2.0222,-2.0189,-2.0163,-2.0141,-2.0144,-2.0145,-2.0147,-2.0155,-2.0096,-2.0153,-2.0153,-2.0153,-2.0152,-2.0152,0,-2.0789,-2.0754,-2.0725,-2.0674,-2.0649,-2.0609,-2.0564,-2.0546,-2.0519,-2.0476,-2.0444,-2.0404,-2.0368,-2.0308,-2.0267,-2.0258,-2.0235,-2.0249,-2.0249,-2.0242,-2.0176,-2.0179,-2.0268,-2.0268,-2.0268,-2.0268,-2.0268,-2.0268,-2.0826,-2.081,-2.0776,-2.0741,-2.0705,-2.0675,-2.0653,-2.0621,-2.0586,-2.0546,-2.0516,-2.0478,-2.0428,-2.0383,-2.0348,-2.0332,-2.032,-2.0341,-2.0318,-2.0257,-2.0247,-2.0236,-2.0239,-2.0339,-2.0339,-2.0386,-2.0386,-2.0387]},{"header":{"parameterUnit":"m.s-1","parameterCategory":1,"la1":30.2991,"la2":30.254,"lo1":-89.0895,"lo2":-89.0444,"dy":0.0017,"dx":0.0017,"nx":28,"ny":28,"refTime":"2023-11-10T03:00:00:Z","depth":0,"parameterNumber":3,"parameterNumberName":"V-component_of_WINDS"},"data":[0,0,0,0,0,0,0,0,0,0,0,0,0,0,0,0,0,0,0,0,0,0,0,0,0,0,0,0,0,0,0,0,0,0,0,0,0,0,0,0,0,0,0,0,0,0,0,0,0,0,0,0,0,0,0,0,0,0,-2.8271,-2.827,0,-2.8223,-2.8222,-2.8221,-2.8154,-2.8153,-2.8152,-2.8151,-2.8099,-2.8099,-2.8099,0,0,0,0,0,0,0,0,0,0,0,0,0,-2.8304,-2.8304,-2.8271,-2.827,-2.8269,-2.8223,-2.8222,-2.8221,-2.8154,-2.8153,-2.8152,-2.815,-2.81,-2.8099,-2.8099,0,0,0,0,0,0,0,0,0,0,0,0,0,-2.8276,-2.8304,-2.8271,-2.823,-2.8226,-2.8223,-2.8222,-2.8221,-2.8155,-2.8153,-2.8151,-2.815,-2.81,-2.8099,-2.8099,-2.813,0,0,-2.8097,-2.8097,0,0,0,0,0,0,0,0,-2.8278,-2.8275,-2.8237,-2.8233,-2.8229,-2.8193,-2.8215,-2.819,-2.8155,-2.8182,-2.8151,-2.8149,-2.8132,-2.8128,-2.8123,-2.8128,-2.8125,-2.8097,-2.8097,-2.8097,-2.8097,0,0,0,0,0,0,0,-2.828,-2.8277,-2.8251,-2.8237,-2.8231,-2.8215,-2.8209,-2.821,-2.8167,-2.8179,-2.8174,-2.817,-2.8129,-2.8124,-2.8121,-2.8125,-2.8097,-2.8097,-2.8097,-2.8096,-2.8156,-2.8158,0,0,0,0,0,0,-2.8288,-2.8279,-2.8253,-2.825,-2.825,-2.8216,-2.8209,-2.8206,-2.8167,-2.8159,-2.8171,-2.8167,-2.8125,-2.8122,-2.8119,-2.8156,-2.8097,-2.8096,-2.8096,-2.8154,-2.8156,-2.8158,0,0,0,0,0,0,-2.8289,-2.8286,-2.8255,-2.8263,-2.8258,-2.8217,-2.8214,-2.8206,-2.82,-2.8161,-2.8152,-2.8174,-2.8124,-2.812,-2.8129,-2.8153,-2.8096,-2.8096,-2.8152,-2.8155,-2.8157,-2.8228,0,0,0,0,0,0,-2.829,-2.8287,-2.8298,-2.8264,-2.8258,-2.8266,-2.8215,-2.8206,-2.82,-2.8194,-2.8161,-2.8154,-2.8122,-2.813,-2.8128,-2.8152,-2.8095,-2.815,-2.8153,-2.8156,-2.8224,-2.8233,-2.8241,0,0,0,0,0,-2.8292,-2.8319,-2.8299,-2.8297,-2.8271,-2.8267,-2.8263,-2.8227,-2.8202,-2.8214,-2.8189,-2.8155,-2.8151,-2.8131,-2.8129,-2.8153,-2.8148,-2.8152,-2.8156,-2.822,-2.8231,-2.8241,0,0,0,0,0,0,-2.8356,-2.8314,-2.8291,-2.8308,-2.8292,-2.8256,-2.8269,-2.824,-2.823,-2.8224,-2.8179,-2.8173,-2.8188,-2.817,-2.815,-2.8182,-2.8144,-2.8148,-2.8193,-2.8204,-2.8213,-2.8217,-2.8095,0,0,0,0,0,-2.8373,-2.8373,-2.8336,-2.8355,-2.8348,-2.831,-2.8307,-2.8281,-2.8262,-2.8254,-2.8229,-2.8212,-2.8207,-2.8204,-2.8197,-2.822,-2.8214,-2.8236,-2.8245,-2.8252,-2.8257,-2.8271,-2.8281,-2.8172,-2.8172,-2.8172,0,0,-2.8406,-2.8383,-2.8386,-2.8367,-2.8351,-2.8354,-2.8304,-2.8308,-2.8309,-2.8254,-2.8262,-2.8243,-2.8221,-2.8238,-2.8245,-2.8224,-2.8285,-2.8257,-2.8264,-2.8264,-2.8276,-2.8287,-2.8296,-2.8175,-2.8174,-2.8174,0,0,-2.8469,-2.8451,-2.8466,-2.8452,-2.8429,-2.8404,-2.8408,-2.8377,-2.8363,-2.837,-2.833,-2.8331,-2.8322,-2.8309,-2.8301,-2.8362,-2.8331,-2.8361,-2.8407,-2.8422,-2.8431,-2.8438,-2.8463,-2.8472,-2.8365,-2.8365,-2.8365,0,-2.8513,-2.8515,-2.8477,-2.8484,-2.8478,-2.843,-2.8446,-2.8433,-2.8409,-2.8407,-2.8384,-2.8375,-2.8356,-2.8371,-2.8387,-2.8381,-2.8385,-2.8365,-2.8433,-2.844,-2.8446,-2.8469,-2.8478,-2.8369,-2.8368,-2.8368,-2.8368,0,-2.8573,-2.8575,-2.859,-2.857,-2.8565,-2.8577,-2.8541,-2.854,-2.8515,-2.8493,-2.8503,-2.8479,-2.8468,-2.8469,-2.8443,-2.8481,-2.847,-2.8441,-2.8402,-2.8461,-2.8482,-2.849,-2.8374,-2.8373,-2.8372,-2.8371,0,0,-2.8674,-2.8635,-2.8642,-2.8633,-2.8606,-2.8607,-2.8617,-2.8607,-2.8609,-2.8594,-2.8603,-2.8598,-2.8572,-2.8563,-2.8536,-2.8549,-2.8602,-2.8518,-2.8517,-2.8537,-2.8646,-2.867,-2.8681,-2.8582,-2.8583,-2.8584,-2.8649,0,-2.8734,-2.8749,-2.8716,-2.874,-2.8743,-2.8698,-2.8707,-2.8692,-2.8672,-2.8672,-2.8649,-2.8648,-2.8612,-2.8607,-2.8617,-2.8594,-2.8624,-2.8588,-2.859,-2.8591,-2.86,-2.8691,-2.8716,-2.8778,-2.8657,-2.8658,-2.8659,0,-2.8805,-2.8797,-2.8822,-2.8796,-2.8796,-2.8804,-2.8795,-2.8794,-2.8776,-2.8761,-2.8753,-2.8722,-2.8731,-2.8693,-2.8705,-2.8682,-2.8681,-2.867,-2.8671,-2.8671,-2.863,-2.8697,-2.8797,-2.8808,-2.8671,-2.867,-2.8669,0,-2.888,-2.8875,-2.889,-2.8884,-2.8853,-2.8861,-2.8848,-2.8829,-2.8826,-2.8817,-2.8815,-2.8807,-2.8803,-2.8798,-2.8766,-2.8741,-2.8784,-2.8742,-2.8773,-2.8774,-2.8785,-2.8785,-2.8889,-2.8781,-2.878,-2.878,-2.878,0,-2.8952,-2.8969,-2.8924,-2.8933,-2.8953,-2.8914,-2.8934,-2.8917,-2.8901,-2.8907,-2.8866,-2.8873,-2.8829,-2.8831,-2.8806,-2.8822,-2.8819,-2.8808,-2.8802,-2.8814,-2.8815,-2.8813,-2.8809,-2.8783,-2.8782,-2.8782,-2.8781,0,-2.904,-2.901,-2.9024,-2.8994,-2.8987,-2.9003,-2.8978,-2.8986,-2.8964,-2.8972,-2.8972,-2.8938,-2.8938,-2.8906,-2.8898,-2.8882,-2.891,-2.8894,-2.8917,-2.8913,-2.8946,-2.8945,-2.9055,-2.9068,-2.8949,-2.895,-2.8951,0,-2.9088,-2.9101,-2.9074,-2.9076,-2.9066,-2.9069,-2.9066,-2.903,-2.9029,-2.9012,-2.9022,-2.902,-2.9016,-2.9019,-2.8994,-2.8989,-2.8974,-2.9013,-2.8973,-2.8986,-2.8978,-2.8979,-2.8982,-2.9022,-2.9024,-2.9025,-2.9026,0,-2.9179,-2.9164,-2.9162,-2.9157,-2.9156,-2.915,-2.914,-2.9144,-2.9104,-2.9106,-2.9107,-2.9104,-2.9098,-2.9097,-2.9089,-2.9075,-2.9046,-2.9039,-2.9046,-2.9059,-2.9073,-2.9069,-2.8942,-2.9037,-2.9036,-2.9035,-2.9034,-2.9034,-2.925,-2.9261,-2.9244,-2.9245,-2.9235,-2.9228,-2.9235,-2.9215,-2.9215,-2.9209,-2.9187,-2.9193,-2.9176,-2.9162,-2.9152,-2.9156,-2.9137,-2.9147,-2.915,-2.9153,-2.9161,-2.9071,-2.9154,-2.9154,-2.9153,-2.9153,-2.9153,0,-2.9341,-2.9329,-2.933,-2.932,-2.9321,-2.9292,-2.9281,-2.9284,-2.929,-2.9278,-2.9276,-2.9278,-2.9278,-2.9253,-2.925,-2.9258,-2.9244,-2.9259,-2.9259,-2.9257,-2.9177,-2.9172,-2.927,-2.927,-2.927,-2.927,-2.927,-2.927,-2.9389,-2.9406,-2.939,-2.9403,-2.939,-2.9396,-2.9393,-2.9387,-2.9377,-2.9383,-2.9382,-2.9367,-2.935,-2.9346,-2.9344,-2.9337,-2.9339,-2.9359,-2.9347,-2.9273,-2.9262,-2.9251,-2.9247,-2.9359,-2.9359,-2.9427,-2.9428,-2.9428]}]]